2023/01/13 00:00:00, 9.3, 4.3
2023/01/13 00:10:00, 9.4, 4.5
2023/01/13 00:20:00, 9.5, 4.4
2023/01/13 00:30:00, 9.5, 4.7
2023/01/13 00:40:00, 9.5, 4.6
2023/01/13 00:50:00, 9.6, 5.2
2023/01/13 01:00:00, 9.8, 4.4
2023/01/13 01:10:00, 9.5, 5.0
2023/01/13 01:20:00, 9.5, 5.0
2023/01/13 01:30:00, 9.6, 5.3
2023/01/13 01:40:00, 9.5, 5.1
2023/01/13 01:50:00, 9.5, 5.2
2023/01/13 02:00:00, 9.4, 5.7
2023/01/13 02:10:00, 9.4, 5.3
2023/01/13 02:20:00, 9.4, 5.5
2023/01/13 02:30:00, 9.5, 5.3
2023/01/13 02:40:00, 9.5, 5.1
2023/01/13 02:50:00, 9.4, 5.0
2023/01/13 03:00:00, 9.5, 4.9
2023/01/13 03:10:00, 9.3, 4.5
2023/01/13 03:20:00, 8.6, 4.6
2023/01/13 03:30:00, 8.1, 4.9
2023/01/13 03:40:00, 8.0, 5.6
2023/01/13 03:50:00, 8.1, 5.3
2023/01/13 04:00:00, 8.1, 6.3
2023/01/13 04:10:00, 7.9, 6.3
2023/01/13 04:20:00, 8.1, 6.3
2023/01/13 04:30:00, 7.9, 6.1
2023/01/13 04:40:00, 7.8, 5.5
2023/01/13 04:50:00, 7.8, 6.2
2023/01/13 05:00:00, 7.8, 6.0
2023/01/13 05:10:00, 7.8, 5.3
2023/01/13 05:20:00, 7.6, 5.7
2023/01/13 05:30:00, 7.6, 6.0
2023/01/13 05:40:00, 7.8, 6.0
2023/01/13 05:50:00, 7.8, 6.2
2023/01/13 06:00:00, 7.6, 7.5
2023/01/13 06:10:00, 7.4, 7.5
2023/01/13 06:20:00, 7.3, 6.8
2023/01/13 06:30:00, 7.3, 7.8
2023/01/13 06:40:00, 7.3, 9.0
2023/01/13 06:50:00, 7.3, 8.3
2023/01/13 07:00:00, 7.2, 8.5
2023/01/13 07:10:00, 7.2, 8.5
2023/01/13 07:20:00, 7.0, 9.3
2023/01/13 07:30:00, 6.6, 8.2
2023/01/13 07:40:00, 6.6, 9.1
2023/01/13 07:50:00, 6.6, 9.2
2023/01/13 08:00:00, 6.6, 9.5
2023/01/13 08:10:00, 6.4, 9.6
2023/01/13 08:20:00, 6.4, 9.3
2023/01/13 08:30:00, 6.4,10.1
2023/01/13 08:40:00, 6.2,10.2
2023/01/13 08:50:00, 6.2,10.2
2023/01/13 09:00:00, 5.9,10.0
2023/01/13 09:10:00, 5.9,10.2
2023/01/13 09:20:00, 5.9,10.5
2023/01/13 09:30:00, 5.9,10.6
2023/01/13 09:40:00, 5.9,10.3
2023/01/13 09:50:00, 6.1,10.7
2023/01/13 10:00:00, 6.2,11.3
2023/01/13 10:10:00, 6.2,11.3
2023/01/13 10:20:00, 5.9,10.9
2023/01/13 10:30:00, 5.9,10.8
2023/01/13 10:40:00, 5.9,10.9
2023/01/13 10:50:00, 6.1,11.1
2023/01/13 11:00:00, 5.9,10.9
2023/01/13 11:10:00, 5.7,10.7
2023/01/13 11:20:00, 5.4,10.6
2023/01/13 11:30:00, 5.2,10.7
2023/01/13 11:40:00, 5.1,10.4
2023/01/13 11:50:00, 5.2,10.5
2023/01/13 12:00:00, 5.2,11.0
2023/01/13 12:10:00, 5.1,11.1
2023/01/13 12:20:00, 5.2,11.3
2023/01/13 12:30:00, 5.2,11.0
2023/01/13 12:40:00, 5.1,10.6
2023/01/13 12:50:00, 4.9,10.6
2023/01/13 13:00:00, 3.9,10.5
2023/01/13 13:10:00, 3.7, 9.7
2023/01/13 13:20:00, 3.3, 9.3
2023/01/13 13:30:00, 3.3, 8.8
2023/01/13 13:40:00, 3.0, 8.8
2023/01/13 13:50:00, 3.0, 8.8
2023/01/13 14:00:00, 2.8, 8.6
2023/01/13 14:10:00, 2.2, 8.9
2023/01/13 14:20:00, 1.9, 8.9
2023/01/13 14:30:00, 1.6, 8.8
2023/01/13 14:40:00, 1.6, 8.7
2023/01/13 14:50:00, 1.6, 8.8
2023/01/13 15:00:00, 1.6, 8.5
2023/01/13 15:10:00, 1.8, 8.7
2023/01/13 15:20:00, 1.4, 8.1
2023/01/13 15:30:00, 1.3, 8.3
2023/01/13 15:40:00, 1.5, 8.4
2023/01/13 15:50:00, 1.4, 8.6
2023/01/13 16:00:00, 1.3, 8.7
2023/01/13 16:10:00, 1.4, 8.9
2023/01/13 16:20:00, 1.3, 9.0
2023/01/13 16:30:00, 1.1, 9.1
2023/01/13 16:40:00, 1.1, 9.0
2023/01/13 16:50:00, 1.1, 9.0
2023/01/13 17:00:00, 1.1, 8.9
2023/01/13 17:10:00, 1.3, 9.0
2023/01/13 17:20:00, 1.3, 9.0
2023/01/13 17:30:00, 1.1, 9.3
2023/01/13 17:40:00, 1.0, 9.5
2023/01/13 17:50:00, 1.0, 9.3
2023/01/13 18:00:00, 1.1, 8.7
2023/01/13 18:10:00, 1.5, 8.6
2023/01/13 18:20:00, 1.6, 9.1
2023/01/13 18:30:00, 1.3, 8.9
2023/01/13 18:40:00, 1.1, 9.5
2023/01/13 18:50:00, 1.0, 9.0
2023/01/13 19:00:00, 1.1, 9.6
2023/01/13 19:10:00, 1.3, 9.2
2023/01/13 19:20:00, 1.3, 8.9
2023/01/13 19:30:00, 1.4, 8.9
2023/01/13 19:40:00, 1.3, 9.5
2023/01/13 19:50:00, 1.4, 9.3
2023/01/13 20:00:00, 1.3, 8.5
2023/01/13 20:10:00, 1.8, 8.1
2023/01/13 20:20:00, 1.8, 9.1
2023/01/13 20:30:00, 1.6, 8.7
2023/01/13 20:40:00, 1.9, 9.1
2023/01/13 20:50:00, 1.9, 9.0
2023/01/13 21:00:00, 1.9, 9.0
2023/01/13 21:10:00, 1.6, 8.9
2023/01/13 21:20:00, 1.4,10.5
2023/01/13 21:30:00, 1.3, 9.9
2023/01/13 21:40:00, 1.3, 9.9
2023/01/13 21:50:00, 1.3,10.2
2023/01/13 22:00:00, 1.3,10.6
2023/01/13 22:10:00, 1.3, 9.8
2023/01/13 22:20:00, 1.4,10.8
2023/01/13 22:30:00, 1.3,10.2
2023/01/13 22:40:00, 1.5, 9.5
2023/01/13 22:50:00, 1.6, 8.7
2023/01/13 23:00:00, 1.9, 9.0
2023/01/13 23:10:00, 1.7, 9.3
2023/01/13 23:20:00, 1.7, 9.4
2023/01/13 23:30:00, 1.6, 9.1
2023/01/13 23:40:00, 1.6, 8.5
2023/01/13 23:50:00, 1.8, 8.4
